Location: Kikino
(54.4440°N, 112.0940°W)
Time: 09:53:48
(UTC+00:00)

Vanguard 3 - Pass Details

Date: 25 May 2024
Orbit: 509 x 3231 km, 33.3° (Epoch: 16 June)

Event Time Altitude Azimuth Distance (km) Brightness Sun altitude
Rises 07:32:02 0° 261° (W) 5,739 11.4 -14.5°
Reaches altitude 10° 07:37:57 10° 242° (WSW) 5,240 11.0 -14.4°
Maximum altitude 07:45:36 15° 213° (SSW) 5,277 10.7 -14.4°
Enters shadow 07:48:56 14° 201° (SSW) 5,506 10.7 -14.3°
